[[{"header":{"parameterUnit":"m.s-1","parameterCategory":2,"la1":30.2991,"la2":30.254,"lo1":-89.0895,"lo2":-89.0444,"dy":0.0017,"dx":0.0017,"nx":28,"ny":28,"refTime":"2025-07-03T09:00:00:Z","depth":"0","parameterNumber":2,"parameterNumberName":"U-component_of_CURRENTS"},"data":[0,0,0,0,0,0,0,0,0,0,0,0,0,0,0,0,0,0,0,0,0,0,0,0,0,0,0,0,0,0,0,0,0,0,0,0,0,0,0,0,0,0,0,0,0,0,0,0,0,0,0,0,0,0,0,0,0,0,-0.269,-0.2691,0,-0.2737,-0.2737,-0.2737,-0.2738,-0.2738,-0.2737,-0.2737,-0.2651,-0.2649,-0.2647,0,0,0,0,0,0,0,0,0,0,0,0,0,-0.2598,-0.26,-0.269,-0.2691,-0.2692,-0.2737,-0.2737,-0.2737,-0.2738,-0.2738,-0.2737,-0.2737,-0.2652,-0.2649,-0.2647,0,0,0,0,0,0,0,0,0,0,0,0,0,-0.2638,-0.26,-0.269,-0.27,-0.2701,-0.2737,-0.2737,-0.2737,-0.2738,-0.2738,-0.2737,-0.2737,-0.2652,-0.2649,-0.2647,-0.2638,0,0,-0.2637,-0.2636,0,0,0,0,0,0,0,0,-0.2636,-0.2641,-0.2698,-0.2699,-0.2701,-0.2734,-0.2673,-0.2698,-0.2738,-0.2721,-0.2737,-0.2737,-0.2668,-0.2664,-0.2672,-0.2633,-0.263,-0.2637,-0.2635,-0.2634,-0.2633,0,0,0,0,0,0,0,-0.2633,-0.2639,-0.2706,-0.2699,-0.2701,-0.2701,-0.2705,-0.2678,-0.2692,-0.2723,-0.2724,-0.2733,-0.2668,-0.2675,-0.2669,-0.2629,-0.2637,-0.2635,-0.2633,-0.2631,-0.2632,-0.2634,0,0,0,0,0,0,-0.2634,-0.2637,-0.2704,-0.2707,-0.267,-0.2703,-0.2708,-0.2721,-0.2695,-0.2693,-0.2734,-0.2733,-0.268,-0.2673,-0.2666,-0.2673,-0.2634,-0.2631,-0.2629,-0.263,-0.2633,-0.2635,0,0,0,0,0,0,-0.2632,-0.264,-0.2703,-0.2675,-0.2683,-0.2705,-0.272,-0.2723,-0.273,-0.2706,-0.27,-0.2739,-0.2679,-0.267,-0.2658,-0.2669,-0.263,-0.2627,-0.2628,-0.2631,-0.2634,-0.2674,0,0,0,0,0,0,-0.2629,-0.2639,-0.2643,-0.2675,-0.2685,-0.2723,-0.2721,-0.2724,-0.2738,-0.2738,-0.2708,-0.27,-0.2678,-0.2663,-0.2655,-0.2664,-0.2625,-0.2626,-0.2629,-0.2633,-0.267,-0.2678,-0.2684,0,0,0,0,0,-0.2626,-0.263,-0.2643,-0.2651,-0.2692,-0.2724,-0.2729,-0.274,-0.2739,-0.2744,-0.2735,-0.2701,-0.268,-0.2662,-0.2652,-0.266,-0.2624,-0.2628,-0.2632,-0.2667,-0.2676,-0.2684,0,0,0,0,0,0,-0.2585,-0.2632,-0.2646,-0.2663,-0.2694,-0.2725,-0.2728,-0.2743,-0.2743,-0.2735,-0.2712,-0.2704,-0.2705,-0.2682,-0.2663,-0.2677,-0.2651,-0.2653,-0.2681,-0.2689,-0.2695,-0.2696,-0.2622,0,0,0,0,0,-0.2582,-0.2597,-0.2645,-0.2655,-0.2672,-0.2702,-0.2715,-0.2728,-0.2738,-0.2738,-0.2727,-0.2717,-0.2716,-0.2701,-0.2695,-0.2686,-0.2678,-0.2692,-0.2699,-0.2705,-0.2703,-0.2729,-0.2737,-0.2648,-0.2648,-0.2648,0,0,-0.2565,-0.2595,-0.2601,-0.2648,-0.2669,-0.2696,-0.2707,-0.2728,-0.2748,-0.2725,-0.2736,-0.2736,-0.2723,-0.2729,-0.2726,-0.2705,-0.2725,-0.271,-0.2715,-0.271,-0.2734,-0.2743,-0.275,-0.2651,-0.265,-0.265,0,0,-0.2542,-0.2572,-0.258,-0.2612,-0.2654,-0.2682,-0.2691,-0.2732,-0.2745,-0.2764,-0.2764,-0.278,-0.2761,-0.2771,-0.2768,-0.2809,-0.2768,-0.2802,-0.282,-0.2846,-0.2853,-0.2859,-0.2849,-0.2854,-0.2796,-0.2796,-0.2796,0,-0.2517,-0.2543,-0.2585,-0.2607,-0.2631,-0.2678,-0.2696,-0.2726,-0.2757,-0.2773,-0.2769,-0.2801,-0.2788,-0.2811,-0.2829,-0.2823,-0.2814,-0.2784,-0.2853,-0.2859,-0.2864,-0.2852,-0.2857,-0.2799,-0.2798,-0.2798,-0.2798,0,-0.2507,-0.2533,-0.254,-0.2591,-0.2623,-0.2644,-0.2702,-0.2733,-0.276,-0.2792,-0.283,-0.284,-0.2856,-0.2866,-0.2851,-0.2889,-0.2862,-0.2864,-0.2826,-0.2875,-0.286,-0.2864,-0.2802,-0.2801,-0.28,-0.28,0,0,-0.2422,-0.2516,-0.2514,-0.2543,-0.2616,-0.2641,-0.269,-0.2748,-0.2777,-0.2823,-0.2856,-0.289,-0.2906,-0.2907,-0.2908,-0.2929,-0.296,-0.2905,-0.2905,-0.2883,-0.2985,-0.2833,-0.2822,-0.2967,-0.2968,-0.2969,-0.2954,0,-0.2394,-0.2439,-0.2493,-0.2531,-0.256,-0.2632,-0.2674,-0.2735,-0.2785,-0.2831,-0.2878,-0.2904,-0.2918,-0.2919,-0.2953,-0.2958,-0.2974,-0.2962,-0.295,-0.2949,-0.2799,-0.2824,-0.2641,-0.26,-0.2958,-0.2959,-0.2959,0,-0.2352,-0.2394,-0.2433,-0.2518,-0.2535,-0.2565,-0.2645,-0.2688,-0.2777,-0.2815,-0.2874,-0.2905,-0.2953,-0.2954,-0.3004,-0.2989,-0.299,-0.2997,-0.2996,-0.284,-0.2805,-0.2613,-0.2594,-0.2484,-0.2965,-0.2965,-0.2964,0,-0.2269,-0.2344,-0.2376,-0.2404,-0.2509,-0.2533,-0.2582,-0.2674,-0.2713,-0.2796,-0.2826,-0.2903,-0.2918,-0.2965,-0.2978,-0.2991,-0.3011,-0.3034,-0.2902,-0.2891,-0.2725,-0.2695,-0.2586,-0.307,-0.307,-0.307,-0.307,0,-0.222,-0.2235,-0.2339,-0.2355,-0.2384,-0.2472,-0.2512,-0.2576,-0.2662,-0.2708,-0.2798,-0.2833,-0.292,-0.2944,-0.2974,-0.2926,-0.301,-0.2898,-0.2878,-0.2731,-0.2704,-0.2591,-0.2622,-0.307,-0.307,-0.307,-0.307,0,-0.2118,-0.2196,-0.2225,-0.2321,-0.2347,-0.2359,-0.2457,-0.2491,-0.2581,-0.2639,-0.266,-0.2768,-0.2786,-0.284,-0.2889,-0.2879,-0.2794,-0.284,-0.2634,-0.259,-0.2347,-0.2389,-0.2349,-0.2296,-0.2696,-0.2692,-0.2689,0,-0.2071,-0.208,-0.2167,-0.2183,-0.222,-0.2267,-0.2306,-0.2425,-0.2475,-0.2597,-0.2615,-0.2651,-0.2663,-0.2654,-0.2629,-0.2609,-0.263,-0.2431,-0.2429,-0.2287,-0.2324,-0.2396,-0.2362,-0.2234,-0.2227,-0.2222,-0.2217,0,-0.1955,-0.1988,-0.2016,-0.2059,-0.2095,-0.2152,-0.222,-0.2254,-0.2397,-0.2447,-0.2501,-0.251,-0.2476,-0.2364,-0.2305,-0.2284,-0.231,-0.2314,-0.2237,-0.1999,-0.2005,-0.1956,-0.2281,-0.2168,-0.2173,-0.2177,-0.218,-0.2182,-0.1839,-0.1831,-0.1878,-0.1905,-0.1963,-0.2019,-0.2028,-0.213,-0.2187,-0.2252,-0.2336,-0.2306,-0.2174,-0.2051,-0.1982,-0.1734,-0.1962,-0.1688,-0.1767,-0.1863,-0.1758,-0.1942,-0.1762,-0.1764,-0.1766,-0.1768,-0.177,0,-0.1686,-0.1704,-0.1725,-0.177,-0.1791,-0.1872,-0.1956,-0.1963,-0.1997,-0.2065,-0.2088,-0.1961,-0.1742,-0.1603,-0.1342,-0.1222,-0.1248,-0.1191,-0.1255,-0.1262,-0.1444,-0.1359,-0.0994,-0.0994,-0.0994,-0.0995,-0.0995,-0.0995,-0.1604,-0.1573,-0.16,-0.1587,-0.1624,-0.1626,-0.1651,-0.1684,-0.1726,-0.1693,-0.1662,-0.168,-0.1467,-0.1257,-0.0935,-0.0867,-0.088,-0.086,-0.0969,-0.1065,-0.1118,-0.1168,-0.1088,-0.0673,-0.0673,-0.0691,-0.0691,-0.0691]},{"header":{"parameterUnit":"m.s-1","parameterCategory":2,"la1":30.2991,"la2":30.254,"lo1":-89.0895,"lo2":-89.0444,"dy":0.0017,"dx":0.0017,"nx":28,"ny":28,"refTime":"2025-07-03T09:00:00:Z","depth":"0","parameterNumber":3,"parameterNumberName":"V-component_of_CURRENTS"},"data":[0,0,0,0,0,0,0,0,0,0,0,0,0,0,0,0,0,0,0,0,0,0,0,0,0,0,0,0,0,0,0,0,0,0,0,0,0,0,0,0,0,0,0,0,0,0,0,0,0,0,0,0,0,0,0,0,0,0,-0.0871,-0.087,0,-0.0831,-0.083,-0.0829,-0.0784,-0.0783,-0.0783,-0.0782,-0.065,-0.0647,-0.0644,0,0,0,0,0,0,0,0,0,0,0,0,0,-0.0854,-0.0855,-0.0871,-0.087,-0.087,-0.0831,-0.083,-0.0829,-0.0784,-0.0783,-0.0783,-0.0782,-0.0651,-0.0647,-0.0644,0,0,0,0,0,0,0,0,0,0,0,0,0,-0.0841,-0.0855,-0.0871,-0.0844,-0.0842,-0.0831,-0.083,-0.0829,-0.0784,-0.0783,-0.0782,-0.0782,-0.0652,-0.0648,-0.0643,-0.0629,0,0,-0.0629,-0.0627,0,0,0,0,0,0,0,0,-0.0841,-0.0841,-0.0849,-0.0846,-0.0843,-0.0813,-0.0776,-0.0758,-0.0784,-0.0803,-0.0782,-0.0781,-0.0698,-0.069,-0.0682,-0.0623,-0.0617,-0.0629,-0.0626,-0.0624,-0.0622,0,0,0,0,0,0,0,-0.0843,-0.0842,-0.0853,-0.0848,-0.0845,-0.0816,-0.0814,-0.0772,-0.0752,-0.0802,-0.0799,-0.0798,-0.0695,-0.0686,-0.0678,-0.0615,-0.0629,-0.0625,-0.0622,-0.062,-0.0563,-0.0564,0,0,0,0,0,0,-0.0856,-0.0844,-0.0854,-0.0852,-0.0843,-0.0818,-0.0815,-0.0822,-0.0754,-0.0745,-0.0799,-0.0796,-0.0695,-0.0684,-0.0673,-0.0662,-0.0624,-0.0619,-0.0617,-0.0562,-0.0563,-0.0565,0,0,0,0,0,0,-0.0856,-0.0858,-0.0856,-0.0848,-0.0846,-0.0819,-0.0827,-0.0821,-0.081,-0.0753,-0.0741,-0.0793,-0.0694,-0.068,-0.0649,-0.0655,-0.0617,-0.0613,-0.056,-0.0562,-0.0564,-0.0632,0,0,0,0,0,0,-0.0856,-0.0858,-0.0862,-0.0849,-0.0847,-0.0848,-0.0828,-0.0821,-0.0812,-0.0808,-0.0744,-0.0732,-0.0692,-0.0656,-0.0644,-0.0648,-0.061,-0.0559,-0.0561,-0.0564,-0.0628,-0.0636,-0.0642,0,0,0,0,0,-0.0855,-0.0859,-0.0863,-0.0864,-0.0856,-0.0849,-0.0845,-0.0821,-0.0812,-0.0808,-0.0777,-0.0734,-0.0663,-0.0654,-0.0639,-0.0642,-0.0558,-0.0561,-0.0563,-0.0625,-0.0634,-0.0642,0,0,0,0,0,0,-0.0851,-0.0855,-0.0859,-0.0864,-0.086,-0.0842,-0.0833,-0.0826,-0.08,-0.0793,-0.0743,-0.0728,-0.0707,-0.0671,-0.0662,-0.0637,-0.0606,-0.0606,-0.0657,-0.0666,-0.0673,-0.0683,-0.0606,0,0,0,0,0,-0.0858,-0.0863,-0.0863,-0.0868,-0.0867,-0.0854,-0.0847,-0.0838,-0.0817,-0.0804,-0.0768,-0.0733,-0.0709,-0.0684,-0.0654,-0.0632,-0.061,-0.0629,-0.0636,-0.0643,-0.0644,-0.0614,-0.0618,-0.0574,-0.0574,-0.0574,0,0,-0.0857,-0.0861,-0.0863,-0.0868,-0.0861,-0.0858,-0.0847,-0.084,-0.084,-0.0793,-0.0775,-0.0753,-0.0711,-0.0695,-0.0682,-0.0662,-0.0652,-0.0646,-0.0652,-0.0649,-0.0617,-0.0621,-0.0625,-0.0576,-0.0576,-0.0575,0,0,-0.0851,-0.0864,-0.0862,-0.0863,-0.0861,-0.086,-0.0862,-0.0852,-0.0846,-0.0833,-0.0812,-0.0803,-0.0747,-0.0734,-0.0716,-0.0745,-0.0695,-0.0734,-0.0767,-0.0738,-0.0741,-0.0743,-0.0754,-0.0756,-0.0732,-0.0732,-0.0732,0,-0.0853,-0.0858,-0.0859,-0.0857,-0.0863,-0.0863,-0.0866,-0.0861,-0.0845,-0.0854,-0.0831,-0.0802,-0.0767,-0.0765,-0.078,-0.076,-0.0744,-0.0735,-0.0747,-0.0748,-0.0749,-0.0758,-0.076,-0.0736,-0.0735,-0.0735,-0.0734,0,-0.0841,-0.085,-0.0849,-0.0855,-0.0859,-0.0865,-0.0869,-0.0875,-0.0874,-0.0877,-0.088,-0.0847,-0.0833,-0.0826,-0.0805,-0.081,-0.08,-0.0762,-0.0722,-0.0757,-0.0766,-0.0766,-0.0741,-0.0739,-0.0738,-0.0737,0,0,-0.0854,-0.0844,-0.0847,-0.0861,-0.0866,-0.0876,-0.0883,-0.0905,-0.0927,-0.091,-0.093,-0.0908,-0.0908,-0.0891,-0.0872,-0.085,-0.0859,-0.0812,-0.0809,-0.0819,-0.0821,-0.0747,-0.0741,-0.0813,-0.0813,-0.0813,-0.0836,0,-0.0855,-0.0853,-0.0849,-0.087,-0.0882,-0.0894,-0.091,-0.0929,-0.094,-0.0958,-0.0947,-0.095,-0.0926,-0.0926,-0.0905,-0.0867,-0.0858,-0.0858,-0.0788,-0.0787,-0.0712,-0.0737,-0.0663,-0.067,-0.0836,-0.0836,-0.0836,0,-0.0857,-0.0864,-0.0869,-0.0906,-0.0913,-0.0923,-0.0975,-0.0985,-0.1011,-0.1019,-0.1025,-0.1013,-0.1009,-0.0965,-0.0924,-0.0922,-0.0884,-0.0849,-0.0847,-0.0749,-0.0711,-0.0655,-0.0664,-0.0443,-0.0836,-0.0836,-0.0836,0,-0.0882,-0.0893,-0.0905,-0.0912,-0.0936,-0.0956,-0.0976,-0.1009,-0.1042,-0.1058,-0.1079,-0.1065,-0.1055,-0.1001,-0.0944,-0.0929,-0.0885,-0.0852,-0.076,-0.0757,-0.0665,-0.0651,-0.0442,-0.0817,-0.0817,-0.0817,-0.0817,0,-0.0902,-0.0919,-0.0919,-0.093,-0.0978,-0.0982,-0.1037,-0.1056,-0.1089,-0.114,-0.1114,-0.1141,-0.1055,-0.1024,-0.0965,-0.087,-0.0903,-0.0772,-0.0747,-0.069,-0.068,-0.0458,-0.0393,-0.0818,-0.0818,-0.0818,-0.0817,0,-0.0921,-0.0916,-0.0941,-0.0966,-0.0986,-0.1017,-0.1078,-0.1124,-0.1141,-0.1198,-0.1205,-0.1196,-0.1158,-0.1082,-0.0996,-0.0891,-0.0696,-0.077,-0.0727,-0.0694,-0.037,-0.0315,-0.0176,-0.0089,-0.0667,-0.0665,-0.0663,0,-0.0923,-0.093,-0.0965,-0.0999,-0.1011,-0.1062,-0.1113,-0.1149,-0.12,-0.1244,-0.128,-0.1252,-0.1267,-0.1113,-0.0924,-0.0798,-0.0659,-0.0602,-0.0543,-0.0335,-0.0256,-0.0247,-0.0184,-0.0477,-0.0474,-0.0472,-0.047,0,-0.093,-0.0933,-0.0949,-0.1019,-0.1074,-0.1146,-0.1213,-0.1263,-0.1312,-0.1365,-0.1421,-0.143,-0.1271,-0.1093,-0.0866,-0.074,-0.0429,-0.0545,-0.0327,-0.0084,-0.0065,0.0026,-0.0511,-0.0448,-0.0451,-0.0452,-0.0453,-0.0454,-0.0927,-0.0942,-0.0966,-0.1035,-0.1117,-0.1216,-0.1275,-0.1367,-0.1455,-0.155,-0.1537,-0.1552,-0.1193,-0.0876,-0.0705,-0.0184,-0.0298,-0.0016,0.0025,0.0008,0.0141,-0.0358,-0.0252,-0.0253,-0.0254,-0.0255,-0.0256,0,-0.0915,-0.0934,-0.0993,-0.1077,-0.117,-0.1214,-0.1338,-0.1409,-0.153,-0.1616,-0.1683,-0.1373,-0.1008,-0.0585,0.0085,0.037,0.0417,0.0529,0.0585,0.0615,0.0196,0.0263,0.0486,0.0486,0.0486,0.0485,0.0485,0.0485,-0.0906,-0.0936,-0.0966,-0.1096,-0.1171,-0.1286,-0.1354,-0.1486,-0.1565,-0.1599,-0.1501,-0.1405,-0.0624,0.0213,0.0872,0.0951,0.1139,0.1102,0.1173,0.0945,0.0899,0.0854,0.0941,0.1301,0.1302,0.1597,0.1601,0.1603]}],[{"header":{"parameterUnit":"m.s-1","parameterCategory":2,"la1":30.2991,"la2":30.254,"lo1":-89.0895,"lo2":-89.0444,"dy":0.0017,"dx":0.0017,"nx":28,"ny":28,"refTime":"2025-07-03T09:00:00:Z","depth":"2","parameterNumber":2,"parameterNumberName":"U-component_of_CURRENTS"},"data":[0,0,0,0,0,0,0,0,0,0,0,0,0,0,0,0,0,0,0,0,0,0,0,0,0,0,0,0,0,0,0,0,0,0,0,0,0,0,0,0,0,0,0,0,0,0,0,0,0,0,0,0,0,0,0,0,0,0,-0.2651,-0.2651,0,-0.2668,-0.2668,-0.2668,-0.2674,-0.2674,-0.2674,-0.2675,-0.2567,-0.2564,-0.2561,0,0,0,0,0,0,0,0,0,0,0,0,0,-0.2566,-0.2568,-0.2651,-0.2651,-0.2652,-0.2668,-0.2668,-0.2668,-0.2674,-0.2674,-0.2674,-0.2675,-0.2568,-0.2565,-0.2561,0,0,0,0,0,0,0,0,0,0,0,0,0,-0.2592,-0.2568,-0.2651,-0.2659,-0.266,-0.2668,-0.2668,-0.2668,-0.2674,-0.2674,-0.2674,-0.2675,-0.257,-0.2565,-0.256,-0.2524,0,0,-0.2546,-0.2544,0,0,0,0,0,0,0,0,-0.2591,-0.2595,-0.2658,-0.2659,-0.266,-0.2672,-0.2599,-0.2615,-0.2674,-0.2665,-0.2675,-0.2675,-0.2593,-0.2586,-0.2586,-0.2519,-0.2515,-0.2546,-0.2543,-0.2541,-0.254,0,0,0,0,0,0,0,-0.2589,-0.2594,-0.2654,-0.2658,-0.266,-0.2643,-0.2647,-0.2602,-0.2622,-0.2666,-0.2667,-0.2674,-0.2592,-0.259,-0.2583,-0.2513,-0.2546,-0.2542,-0.2539,-0.2537,-0.2447,-0.2447,0,0,0,0,0,0,-0.2597,-0.2593,-0.2654,-0.2655,-0.2629,-0.2645,-0.2649,-0.2665,-0.2625,-0.2621,-0.2674,-0.2675,-0.2598,-0.2588,-0.2579,-0.2547,-0.2541,-0.2537,-0.2534,-0.2446,-0.2447,-0.2447,0,0,0,0,0,0,-0.2595,-0.2602,-0.2653,-0.2626,-0.2632,-0.2647,-0.2664,-0.2665,-0.2661,-0.2633,-0.2626,-0.2669,-0.2598,-0.2585,-0.2544,-0.2543,-0.2535,-0.253,-0.2446,-0.2447,-0.2447,-0.2475,0,0,0,0,0,0,-0.2592,-0.2602,-0.2606,-0.2627,-0.2634,-0.2612,-0.2664,-0.2666,-0.2667,-0.2667,-0.2626,-0.2617,-0.2597,-0.2551,-0.2539,-0.2536,-0.2527,-0.2445,-0.2446,-0.2447,-0.2473,-0.2476,-0.2479,0,0,0,0,0,-0.2589,-0.2582,-0.2607,-0.2614,-0.2644,-0.2609,-0.2608,-0.2619,-0.2666,-0.2625,-0.264,-0.2618,-0.2548,-0.2547,-0.2533,-0.2529,-0.2445,-0.2446,-0.2447,-0.2472,-0.2476,-0.2479,0,0,0,0,0,0,-0.2547,-0.2584,-0.261,-0.2617,-0.2599,-0.2611,-0.2594,-0.2617,-0.2601,-0.2622,-0.2609,-0.2598,-0.2552,-0.2542,-0.2542,-0.2508,-0.2497,-0.2496,-0.2522,-0.2524,-0.2527,-0.2524,-0.2523,0,0,0,0,0,-0.2545,-0.255,-0.2567,-0.2567,-0.2565,-0.2586,-0.2581,-0.2591,-0.259,-0.2586,-0.2567,-0.2565,-0.2546,-0.2538,-0.2494,-0.2477,-0.2451,-0.2471,-0.2474,-0.2476,-0.2467,-0.2434,-0.2432,-0.245,-0.245,-0.245,0,0,-0.2528,-0.2552,-0.2554,-0.2557,-0.2563,-0.2549,-0.2581,-0.2568,-0.2568,-0.2574,-0.2558,-0.2544,-0.2536,-0.2511,-0.2495,-0.2507,-0.2459,-0.2477,-0.2479,-0.2468,-0.2434,-0.2432,-0.2431,-0.2451,-0.245,-0.245,0,0,-0.249,-0.2521,-0.2509,-0.2497,-0.2503,-0.2514,-0.251,-0.2516,-0.2521,-0.2507,-0.2526,-0.2524,-0.2484,-0.2493,-0.2496,-0.2489,-0.2453,-0.2479,-0.2511,-0.248,-0.2478,-0.2475,-0.2447,-0.2442,-0.2507,-0.2507,-0.2507,0,-0.2466,-0.2475,-0.2488,-0.2474,-0.2472,-0.2501,-0.2481,-0.2488,-0.248,-0.2481,-0.2495,-0.2486,-0.2481,-0.2487,-0.2508,-0.2492,-0.2467,-0.2501,-0.2482,-0.2479,-0.2476,-0.2447,-0.2442,-0.2509,-0.2509,-0.2509,-0.2508,0,-0.2419,-0.2428,-0.2415,-0.2424,-0.2408,-0.239,-0.2411,-0.2401,-0.2436,-0.2448,-0.2437,-0.2452,-0.2459,-0.2467,-0.2495,-0.2488,-0.2472,-0.2467,-0.2472,-0.2476,-0.2446,-0.2439,-0.2511,-0.251,-0.251,-0.251,0,0,-0.2354,-0.238,-0.2375,-0.2381,-0.2388,-0.2369,-0.2372,-0.2366,-0.2382,-0.2386,-0.2388,-0.2416,-0.2446,-0.2454,-0.2487,-0.249,-0.2474,-0.249,-0.2487,-0.2458,-0.24,-0.2338,-0.2324,-0.2462,-0.2461,-0.246,-0.2389,0,-0.231,-0.2296,-0.2314,-0.2292,-0.2286,-0.2312,-0.2309,-0.2315,-0.2334,-0.2333,-0.2376,-0.2379,-0.2438,-0.2461,-0.2476,-0.2459,-0.2456,-0.2494,-0.2403,-0.24,-0.2341,-0.2314,-0.2049,-0.1958,-0.2383,-0.2381,-0.2381,0,-0.2249,-0.2257,-0.2241,-0.2255,-0.2252,-0.2248,-0.2257,-0.2262,-0.228,-0.2296,-0.2328,-0.2343,-0.2379,-0.2414,-0.2409,-0.2429,-0.2421,-0.2409,-0.2405,-0.2327,-0.2324,-0.2021,-0.1929,-0.2369,-0.237,-0.2371,-0.2372,0,-0.2197,-0.2197,-0.2194,-0.2195,-0.2215,-0.2217,-0.2234,-0.2252,-0.2237,-0.2283,-0.2267,-0.2311,-0.2326,-0.2324,-0.2349,-0.2369,-0.2304,-0.2322,-0.225,-0.2246,-0.1991,-0.1966,-0.2284,-0.2284,-0.2284,-0.2284,-0.2284,0,-0.2144,-0.2128,-0.218,-0.2177,-0.2158,-0.2199,-0.2176,-0.2209,-0.2216,-0.2188,-0.2265,-0.2245,-0.23,-0.228,-0.2304,-0.2257,-0.2273,-0.2232,-0.2214,-0.1996,-0.1973,-0.2309,-0.2313,-0.2282,-0.2282,-0.2283,-0.2283,0,-0.2068,-0.2109,-0.2096,-0.2132,-0.2135,-0.213,-0.2115,-0.2086,-0.2146,-0.2111,-0.2117,-0.2164,-0.2171,-0.2197,-0.2186,-0.2181,-0.2151,-0.2127,-0.1877,-0.1831,-0.2124,-0.213,-0.2023,-0.202,-0.2017,-0.2015,-0.2013,0,-0.2018,-0.2016,-0.2045,-0.2028,-0.2042,-0.2034,-0.1999,-0.2041,-0.2013,-0.2053,-0.2017,-0.2035,-0.2027,-0.2002,-0.1967,-0.1944,-0.2071,-0.17,-0.1697,-0.2099,-0.2092,-0.2103,-0.2113,-0.1369,-0.1362,-0.1356,-0.1351,0,-0.1909,-0.1937,-0.1936,-0.1919,-0.1894,-0.1837,-0.1824,-0.1797,-0.1849,-0.1842,-0.1854,-0.1857,-0.1827,-0.1695,-0.1672,-0.1624,-0.1688,-0.1586,-0.2017,-0.15,-0.1482,-0.1477,-0.1507,-0.1301,-0.1306,-0.131,-0.1312,-0.1314,-0.1807,-0.1789,-0.1806,-0.1778,-0.1736,-0.1673,-0.1614,-0.163,-0.1604,-0.1627,-0.169,-0.1654,-0.1564,-0.1433,-0.134,-0.1252,-0.1402,-0.1305,-0.1321,-0.1344,-0.1305,-0.1286,-0.106,-0.1063,-0.1066,-0.1069,-0.1071,0,-0.1659,-0.1669,-0.1645,-0.1609,-0.1518,-0.1545,-0.1486,-0.1436,-0.1426,-0.149,-0.1518,-0.1263,-0.1142,-0.1098,-0.0868,-0.0819,-0.0796,-0.0775,-0.0729,-0.0774,-0.0816,-0.0754,-0.0361,-0.036,-0.036,-0.0359,0,0,-0.1579,-0.153,-0.1546,-0.1406,-0.1373,-0.1246,-0.1207,-0.1187,-0.1214,-0.1189,-0.1157,-0.1254,-0.113,-0.0836,-0.0682,-0.0522,-0.0684,-0.0467,-0.1014,-0.1013,-0.1057,-0.1063,-0.101,0,0,0,0,0]},{"header":{"parameterUnit":"m.s-1","parameterCategory":2,"la1":30.2991,"la2":30.254,"lo1":-89.0895,"lo2":-89.0444,"dy":0.0017,"dx":0.0017,"nx":28,"ny":28,"refTime":"2025-07-03T09:00:00:Z","depth":"2","parameterNumber":3,"parameterNumberName":"V-component_of_CURRENTS"},"data":[0,0,0,0,0,0,0,0,0,0,0,0,0,0,0,0,0,0,0,0,0,0,0,0,0,0,0,0,0,0,0,0,0,0,0,0,0,0,0,0,0,0,0,0,0,0,0,0,0,0,0,0,0,0,0,0,0,0,0.019,0.0194,0,0.0442,0.0444,0.0447,0.044,0.0437,0.0434,0.0431,0.0415,0.0417,0.042,0,0,0,0,0,0,0,0,0,0,0,0,0,0.0099,0.0097,0.019,0.0194,0.0197,0.0442,0.0445,0.0448,0.044,0.0437,0.0433,0.043,0.0414,0.0417,0.042,0,0,0,0,0,0,0,0,0,0,0,0,0,0.0217,0.0097,0.019,0.0227,0.0233,0.0441,0.0445,0.0448,0.0441,0.0437,0.0432,0.0428,0.0413,0.0417,0.042,0.0533,0,0,0.0431,0.0433,0,0,0,0,0,0,0,0,0.021,0.022,0.0218,0.0225,0.0232,0.0409,0.0407,0.0465,0.0442,0.0357,0.0431,0.0426,0.0395,0.04,0.0454,0.0532,0.0531,0.0432,0.0434,0.0435,0.0436,0,0,0,0,0,0,0,0.0201,0.0212,0.0285,0.0222,0.0231,0.0367,0.0375,0.0421,0.0389,0.0364,0.0365,0.0403,0.0395,0.0451,0.0453,0.0531,0.0432,0.0435,0.0437,0.0438,0.0548,0.0549,0,0,0,0,0,0,0.0164,0.0202,0.0277,0.0293,0.0216,0.0371,0.038,0.0353,0.0395,0.0401,0.0406,0.0402,0.0447,0.0449,0.0452,0.0456,0.0435,0.0439,0.0441,0.0548,0.0548,0.0549,0,0,0,0,0,0,0.016,0.0166,0.0267,0.0262,0.0284,0.0375,0.0347,0.036,0.0364,0.0431,0.0429,0.039,0.0444,0.0447,0.0469,0.0459,0.044,0.0444,0.0547,0.0548,0.0549,0.0548,0,0,0,0,0,0,0.0155,0.0161,0.0118,0.0256,0.0283,0.0348,0.0353,0.0369,0.04,0.0394,0.0418,0.0416,0.044,0.0463,0.0472,0.0464,0.0446,0.0546,0.0547,0.0548,0.0547,0.0549,0.055,0,0,0,0,0,0.015,0.0105,0.0112,0.0123,0.022,0.0349,0.0374,0.0426,0.0403,0.0409,0.0432,0.0412,0.0477,0.0469,0.0478,0.047,0.0545,0.0547,0.0548,0.0546,0.0548,0.055,0,0,0,0,0,0,0.0037,0.0106,0.0115,0.0086,0.0193,0.0348,0.036,0.0406,0.0441,0.0398,0.0445,0.0447,0.0452,0.0474,0.0463,0.0506,0.0499,0.0503,0.0494,0.0496,0.0498,0.0454,0.0449,0,0,0,0,0,-0.0003,-0.0036,0.0091,0.0065,0.0108,0.0228,0.0279,0.0314,0.0384,0.0392,0.0433,0.0454,0.0486,0.0495,0.0522,0.0569,0.0592,0.0563,0.0565,0.0566,0.0537,0.0666,0.0677,0.0555,0.0555,0.0555,0,0,-0.0051,-0.0019,-0.0038,0.004,0.0114,0.0186,0.0242,0.0293,0.034,0.0384,0.0423,0.0455,0.0496,0.0537,0.054,0.0543,0.0599,0.0568,0.0569,0.0539,0.0669,0.0681,0.0692,0.0556,0.0556,0.0556,0,0,-0.0113,-0.0138,-0.0154,-0.0074,0.0026,0.0111,0.0113,0.0251,0.0282,0.0355,0.0384,0.0427,0.0484,0.054,0.0566,0.0601,0.0598,0.0581,0.0567,0.0693,0.0705,0.0715,0.0699,0.0708,0.0593,0.0593,0.0593,0,-0.0178,-0.0184,-0.0127,-0.0088,-0.0034,0.0065,0.0105,0.0183,0.0308,0.0348,0.0335,0.0468,0.0494,0.0578,0.057,0.0604,0.0622,0.0557,0.0697,0.0708,0.0719,0.0701,0.0711,0.0593,0.0593,0.0593,0.0593,0,-0.0199,-0.021,-0.0206,-0.0147,-0.0076,-0.0039,0.0092,0.0143,0.0186,0.0281,0.0358,0.0445,0.0515,0.0541,0.0554,0.064,0.0604,0.068,0.0692,0.0731,0.0708,0.0719,0.0593,0.0593,0.0593,0.0593,0,0,-0.0342,-0.0248,-0.0255,-0.0224,-0.0117,-0.0052,0.0011,0.0132,0.0178,0.0283,0.0368,0.0444,0.0482,0.0513,0.0569,0.0672,0.074,0.0681,0.0688,0.0658,0.0909,0.0801,0.0802,0.0853,0.0856,0.0859,0.084,0,-0.038,-0.0345,-0.0281,-0.0237,-0.0194,-0.0093,-0.0022,0.0085,0.0174,0.0284,0.0392,0.0468,0.0479,0.0503,0.0608,0.0716,0.0776,0.073,0.0877,0.0877,0.0779,0.0816,0.0827,0.0806,0.085,0.0852,0.0853,0,-0.0415,-0.0384,-0.0361,-0.0266,-0.024,-0.0208,-0.0095,-0.002,0.0145,0.0219,0.0321,0.0411,0.0525,0.0558,0.0738,0.0702,0.0764,0.0856,0.0861,0.0766,0.0793,0.0788,0.0824,0.0871,0.0869,0.0868,0.0867,0,-0.0512,-0.0442,-0.044,-0.0407,-0.0279,-0.0267,-0.0216,-0.0068,0.0023,0.0157,0.0234,0.0389,0.0458,0.0612,0.0709,0.0742,0.0901,0.1001,0.0953,0.0941,0.0977,0.0963,0.113,0.113,0.113,0.113,0.113,0,-0.0573,-0.0564,-0.05,-0.049,-0.0462,-0.0371,-0.0314,-0.0229,-0.008,0.0024,0.0159,0.0263,0.0483,0.0597,0.0703,0.08,0.0889,0.0919,0.0954,0.0964,0.0951,0.1045,0.1036,0.1129,0.1129,0.113,0.113,0,-0.0662,-0.0627,-0.0601,-0.0527,-0.0505,-0.0503,-0.0375,-0.0298,-0.0198,-0.006,-0.0023,0.0179,0.0294,0.0457,0.068,0.0762,0.0898,0.0902,0.0801,0.0825,0.0846,0.0837,0.0893,0.0889,0.0887,0.0884,0.0882,0,-0.07,-0.0702,-0.065,-0.0629,-0.061,-0.0571,-0.0501,-0.0376,-0.0279,-0.0111,-0.0038,0.008,0.0182,0.0387,0.0583,0.0721,0.0763,0.0772,0.0873,0.0806,0.0835,0.083,0.0825,0.0895,0.0893,0.0892,0.0891,0,-0.0744,-0.0746,-0.0724,-0.07,-0.0664,-0.0558,-0.0484,-0.0415,-0.0266,-0.0182,-0.0084,-0.002,0.0163,0.0341,0.048,0.0585,0.076,0.0743,0.0785,0.093,0.0803,0.0831,0.0829,0.0878,0.0879,0.088,0.0881,0.0881,-0.0778,-0.0786,-0.0771,-0.075,-0.0683,-0.0566,-0.0501,-0.0411,-0.031,-0.0186,-0.0141,-0.0028,0.0152,0.0401,0.0488,0.0607,0.0665,0.0738,0.0747,0.0757,0.0738,0.0611,0.0639,0.0638,0.0638,0.0638,0.0638,0,-0.0784,-0.0795,-0.0793,-0.0733,-0.0654,-0.0621,-0.0469,-0.0396,-0.0336,-0.0239,-0.0192,0.0027,0.0201,0.0362,0.056,0.0647,0.0709,0.0627,0.0726,0.0737,0.0748,0.0734,0.0631,0.0631,0.063,0.063,0,0,-0.0783,-0.0793,-0.0809,-0.0722,-0.0676,-0.0562,-0.0492,-0.0421,-0.033,-0.0244,-0.0135,0.002,0.024,0.0376,0.0481,0.0549,0.0604,0.0542,0.0546,0.0659,0.0667,0.0818,0.0808,0,0,0,0,0]}],[{"header":{"parameterUnit":"m.s-1","parameterCategory":2,"la1":30.2991,"la2":30.254,"lo1":-89.0895,"lo2":-89.0444,"dy":0.0017,"dx":0.0017,"nx":28,"ny":28,"refTime":"2025-07-03T09:00:00:Z","depth":"4","parameterNumber":2,"parameterNumberName":"U-component_of_CURRENTS"},"data":[0,0,0,0,0,0,0,0,0,0,0,0,0,0,0,0,0,0,0,0,0,0,0,0,0,0,0,0,0,0,0,0,0,0,0,0,0,0,0,0,0,0,0,0,0,0,0,0,0,0,0,0,0,0,0,0,0,0,-0.089,-0.0891,0,-0.0928,-0.0928,-0.0928,-0.0957,-0.0958,-0.0959,-0.096,-0.1078,-0.108,-0.1082,0,0,0,0,0,0,0,0,0,0,0,0,0,-0.0819,-0.082,-0.089,-0.0891,-0.0892,-0.0928,-0.0928,-0.0928,-0.0957,-0.0958,-0.0959,-0.096,-0.1077,-0.108,-0.1083,0,0,0,0,0,0,0,0,0,0,0,0,0,-0.0848,-0.0821,-0.089,-0.0915,-0.0918,-0.0928,-0.0928,-0.0928,-0.0957,-0.0958,-0.0959,-0.096,-0.1076,-0.1079,-0.1083,-0.1083,0,0,-0.1094,-0.1096,0,0,0,0,0,0,0,0,-0.0846,-0.085,-0.091,-0.0913,-0.0916,-0.0944,-0.0947,-0.0986,-0.0957,-0.0937,-0.096,-0.0961,-0.1043,-0.1049,-0.1045,-0.1088,-0.1093,-0.1094,-0.1097,-0.1098,-0.1099,0,0,0,0,0,0,0,-0.0844,-0.0848,-0.09,-0.0911,-0.0915,-0.0917,-0.0921,-0.0953,-0.098,-0.0938,-0.0942,-0.0954,-0.1045,-0.1041,-0.1049,-0.1095,-0.1094,-0.1098,-0.11,-0.1101,-0.1273,-0.1275,0,0,0,0,0,0,-0.085,-0.0847,-0.0899,-0.0901,-0.0889,-0.0917,-0.0923,-0.093,-0.0978,-0.0988,-0.0953,-0.0956,-0.1035,-0.1044,-0.1053,-0.1158,-0.1098,-0.1102,-0.1104,-0.127,-0.1273,-0.1276,0,0,0,0,0,0,-0.0849,-0.0854,-0.0897,-0.0879,-0.0886,-0.0918,-0.0925,-0.093,-0.0963,-0.099,-0.1,-0.0987,-0.1036,-0.1048,-0.1113,-0.1159,-0.1103,-0.1107,-0.1267,-0.1271,-0.1274,-0.1303,0,0,0,0,0,0,-0.0846,-0.0853,-0.0868,-0.088,-0.0887,-0.092,-0.0925,-0.093,-0.0969,-0.0974,-0.1021,-0.1031,-0.1038,-0.1108,-0.1117,-0.1163,-0.1109,-0.1264,-0.1269,-0.1273,-0.1299,-0.1307,-0.1314,0,0,0,0,0,-0.0843,-0.0837,-0.0868,-0.0876,-0.0904,-0.0922,-0.0925,-0.0948,-0.097,-0.0983,-0.1025,-0.1031,-0.1143,-0.1112,-0.1122,-0.1171,-0.1262,-0.1268,-0.1273,-0.1295,-0.1305,-0.1313,0,0,0,0,0,0,-0.0817,-0.0841,-0.0875,-0.0881,-0.0918,-0.0929,-0.0942,-0.0969,-0.1008,-0.1029,-0.1052,-0.1064,-0.1154,-0.1155,-0.112,-0.1237,-0.1208,-0.1216,-0.1222,-0.1232,-0.1239,-0.1247,-0.1112,0,0,0,0,0,-0.0822,-0.0825,-0.0864,-0.0878,-0.0898,-0.0934,-0.095,-0.0977,-0.101,-0.1029,-0.1053,-0.1103,-0.1176,-0.1197,-0.125,-0.1292,-0.1269,-0.1336,-0.1344,-0.1349,-0.1366,-0.1354,-0.1361,-0.1293,-0.1293,-0.1293,0,0,-0.082,-0.0834,-0.0841,-0.0874,-0.0904,-0.0929,-0.0945,-0.0984,-0.1014,-0.1038,-0.1079,-0.1142,-0.1202,-0.1267,-0.1305,-0.1272,-0.1354,-0.1356,-0.1361,-0.1374,-0.136,-0.1366,-0.1372,-0.1297,-0.1296,-0.1295,0,0,-0.0806,-0.0834,-0.0838,-0.0876,-0.0933,-0.0943,-0.0967,-0.1001,-0.103,-0.1096,-0.1134,-0.1205,-0.1288,-0.1317,-0.1356,-0.1433,-0.1413,-0.1474,-0.1493,-0.1481,-0.1486,-0.1489,-0.1441,-0.144,-0.1452,-0.1452,-0.1452,0,-0.0816,-0.0822,-0.0845,-0.0875,-0.0897,-0.0955,-0.0975,-0.1016,-0.1067,-0.1088,-0.1124,-0.1249,-0.131,-0.1376,-0.1439,-0.1448,-0.1435,-0.1448,-0.1487,-0.149,-0.1493,-0.1443,-0.1442,-0.1454,-0.1454,-0.1454,-0.1454,0,-0.0815,-0.0839,-0.0847,-0.0893,-0.0913,-0.0946,-0.1002,-0.1037,-0.109,-0.1129,-0.1222,-0.1291,-0.1358,-0.1406,-0.1476,-0.1538,-0.1518,-0.1511,-0.1452,-0.1501,-0.1446,-0.1444,-0.1457,-0.1456,-0.1456,-0.1455,0,0,-0.0789,-0.0834,-0.0844,-0.0868,-0.0929,-0.0942,-0.0993,-0.1036,-0.1098,-0.1154,-0.1187,-0.1349,-0.1391,-0.1441,-0.1496,-0.1517,-0.1556,-0.1555,-0.1553,-0.1486,-0.1517,-0.1413,-0.14,-0.1562,-0.1563,-0.1564,-0.1457,0,-0.0791,-0.0812,-0.0834,-0.0869,-0.0882,-0.0943,-0.0978,-0.1037,-0.1123,-0.117,-0.1229,-0.1315,-0.1398,-0.146,-0.1494,-0.1572,-0.156,-0.1585,-0.1499,-0.1496,-0.1381,-0.1398,-0.1566,-0.1455,-0.1455,-0.1454,-0.1454,0,-0.0783,-0.0791,-0.0807,-0.0845,-0.086,-0.0902,-0.097,-0.1018,-0.1109,-0.1183,-0.125,-0.1308,-0.1376,-0.1429,-0.1497,-0.1519,-0.1541,-0.1561,-0.1555,-0.1453,-0.139,-0.1407,-0.145,-0.145,-0.1451,-0.1451,-0.1451,0,-0.0721,-0.0769,-0.0764,-0.0792,-0.085,-0.0885,-0.0921,-0.1027,-0.1054,-0.1187,-0.1221,-0.1303,-0.1341,-0.1382,-0.1471,-0.15,-0.1503,-0.1507,-0.139,-0.1379,-0.1489,-0.1486,-0.1506,-0.1507,-0.1507,-0.1507,-0.1507,0,-0.0696,-0.0707,-0.0756,-0.0775,-0.0794,-0.0853,-0.092,-0.1,-0.1064,-0.1089,-0.1219,-0.123,-0.1353,-0.1364,-0.1426,-0.1401,-0.1442,-0.1397,-0.1353,-0.1501,-0.1502,-0.1484,-0.1483,-0.1503,-0.1504,-0.1505,-0.1505,0,-0.0643,-0.0675,-0.0685,-0.0748,-0.0771,-0.0794,-0.0868,-0.0906,-0.1019,-0.104,-0.1053,-0.1159,-0.1212,-0.1265,-0.1331,-0.1323,-0.1314,-0.1277,-0.1405,-0.137,-0.1201,-0.1204,-0.1123,-0.1119,-0.1115,-0.1112,-0.1109,0,-0.0615,-0.0612,-0.0654,-0.0657,-0.0703,-0.0753,-0.0768,-0.0867,-0.0901,-0.098,-0.0945,-0.1005,-0.1079,-0.1051,-0.1157,-0.1164,-0.1175,-0.1144,-0.1224,-0.1201,-0.1166,-0.1174,-0.1181,-0.1103,-0.1102,-0.1102,-0.1101,0,-0.0562,-0.0584,-0.0595,-0.059,-0.0614,-0.0621,-0.067,-0.0678,-0.0771,-0.0835,-0.084,-0.0864,-0.0895,-0.0971,-0.0986,-0.1001,-0.1166,-0.1106,-0.1115,-0.1189,-0.1176,-0.1147,-0.1158,-0.1088,-0.109,-0.1091,-0.1091,0,-0.0529,-0.0518,-0.0525,-0.0524,-0.0514,-0.0501,-0.0555,-0.0578,-0.0599,-0.07,-0.0684,-0.0774,-0.0856,-0.0877,-0.0884,-0.0903,-0.0913,-0.0915,-0.0934,-0.0949,-0.0956,-0.0917,-0.0705,0,0,0,0,0,-0.0489,-0.0471,-0.0451,-0.0439,-0.0411,-0.0415,-0.0467,-0.0526,-0.0616,-0.0579,-0.0638,-0.0663,-0.0704,-0.0749,-0.074,-0.0819,-0.0922,-0.0806,-0.0936,-0.1016,-0.1031,-0.1063,0,0,0,0,0,0,-0.0466,-0.045,-0.0433,-0.0351,-0.032,-0.0292,-0.0331,-0.0398,-0.0416,-0.0511,-0.0541,-0.0593,-0.065,-0.0679,-0.0707,-0.0722,-0.0789,-0.0851,-0.0849,-0.1008,-0.1021,-0.1033,-0.1071,0,0,0,0,0]},{"header":{"parameterUnit":"m.s-1","parameterCategory":2,"la1":30.2991,"la2":30.254,"lo1":-89.0895,"lo2":-89.0444,"dy":0.0017,"dx":0.0017,"nx":28,"ny":28,"refTime":"2025-07-03T09:00:00:Z","depth":"4","parameterNumber":3,"parameterNumberName":"V-component_of_CURRENTS"},"data":[0,0,0,0,0,0,0,0,0,0,0,0,0,0,0,0,0,0,0,0,0,0,0,0,0,0,0,0,0,0,0,0,0,0,0,0,0,0,0,0,0,0,0,0,0,0,0,0,0,0,0,0,0,0,0,0,0,0,-0.022,-0.022,0,-0.0258,-0.0258,-0.0259,-0.0249,-0.0248,-0.0247,-0.0246,-0.0223,-0.0223,-0.0223,0,0,0,0,0,0,0,0,0,0,0,0,0,-0.0155,-0.0157,-0.022,-0.022,-0.022,-0.0258,-0.0258,-0.0259,-0.0249,-0.0248,-0.0247,-0.0245,-0.0222,-0.0223,-0.0223,0,0,0,0,0,0,0,0,0,0,0,0,0,-0.0191,-0.0157,-0.022,-0.0216,-0.0216,-0.0257,-0.0259,-0.026,-0.025,-0.0248,-0.0246,-0.0245,-0.0222,-0.0223,-0.0224,-0.0263,0,0,-0.0226,-0.0226,0,0,0,0,0,0,0,0,-0.0189,-0.0194,-0.0217,-0.0217,-0.0216,-0.0243,-0.0227,-0.0256,-0.025,-0.0242,-0.0246,-0.0244,-0.0222,-0.0223,-0.0241,-0.0262,-0.026,-0.0226,-0.0226,-0.0226,-0.0227,0,0,0,0,0,0,0,-0.0187,-0.0193,-0.0239,-0.0217,-0.0217,-0.0218,-0.0222,-0.0233,-0.0243,-0.0242,-0.0241,-0.0238,-0.0222,-0.024,-0.024,-0.026,-0.0226,-0.0226,-0.0227,-0.0227,-0.0247,-0.0247,0,0,0,0,0,0,-0.0175,-0.0191,-0.0238,-0.024,-0.0193,-0.022,-0.0224,-0.024,-0.0245,-0.0243,-0.024,-0.0238,-0.024,-0.0239,-0.0239,-0.0256,-0.0226,-0.0227,-0.0227,-0.0247,-0.0247,-0.0247,0,0,0,0,0,0,-0.0174,-0.018,-0.0237,-0.0211,-0.0218,-0.0222,-0.024,-0.0241,-0.0259,-0.0243,-0.024,-0.0255,-0.0239,-0.0238,-0.023,-0.0255,-0.0227,-0.0228,-0.0247,-0.0247,-0.0247,-0.0307,0,0,0,0,0,0,-0.0172,-0.018,-0.0194,-0.0211,-0.0219,-0.0257,-0.0242,-0.0243,-0.0258,-0.0256,-0.0255,-0.0251,-0.0237,-0.0229,-0.0231,-0.0256,-0.0229,-0.0247,-0.0247,-0.0247,-0.0305,-0.031,-0.0313,0,0,0,0,0,-0.017,-0.0194,-0.0195,-0.02,-0.0237,-0.0257,-0.0262,-0.0261,-0.026,-0.0272,-0.0257,-0.0251,-0.0231,-0.023,-0.0232,-0.0258,-0.0247,-0.0247,-0.0247,-0.0304,-0.0309,-0.0313,0,0,0,0,0,0,-0.0175,-0.0195,-0.0196,-0.0226,-0.0237,-0.0253,-0.0266,-0.0271,-0.0276,-0.0268,-0.0256,-0.0252,-0.0254,-0.0244,-0.0243,-0.026,-0.0238,-0.0239,-0.028,-0.0285,-0.0289,-0.028,-0.0229,0,0,0,0,0,-0.0182,-0.0206,-0.0218,-0.0242,-0.0248,-0.0262,-0.0273,-0.0273,-0.0275,-0.0277,-0.0277,-0.0268,-0.0261,-0.0261,-0.0253,-0.0272,-0.0222,-0.0286,-0.029,-0.0294,-0.0285,-0.023,-0.0228,-0.0248,-0.0248,-0.0248,0,0,-0.0194,-0.0204,-0.022,-0.0244,-0.0255,-0.0284,-0.0266,-0.0282,-0.0311,-0.0273,-0.031,-0.0284,-0.0266,-0.0275,-0.0277,-0.027,-0.026,-0.0294,-0.0298,-0.0287,-0.023,-0.0228,-0.0226,-0.0248,-0.0248,-0.0248,0,0,-0.0217,-0.0234,-0.0258,-0.0274,-0.0284,-0.0298,-0.0304,-0.0324,-0.0335,-0.0361,-0.0331,-0.0317,-0.0331,-0.0314,-0.031,-0.0335,-0.0279,-0.033,-0.0353,-0.03,-0.0298,-0.0296,-0.022,-0.021,-0.0338,-0.0338,-0.0338,0,-0.0222,-0.0261,-0.0267,-0.0292,-0.0313,-0.0309,-0.0343,-0.0364,-0.0379,-0.0383,-0.0375,-0.0368,-0.0356,-0.0354,-0.0348,-0.0349,-0.0285,-0.0342,-0.0306,-0.0302,-0.0298,-0.0221,-0.021,-0.0341,-0.034,-0.034,-0.034,0,-0.0268,-0.0297,-0.0312,-0.035,-0.0376,-0.0399,-0.0424,-0.0445,-0.0459,-0.0464,-0.0464,-0.044,-0.0425,-0.0426,-0.0394,-0.0366,-0.0317,-0.0315,-0.0295,-0.03,-0.0218,-0.0205,-0.0345,-0.0344,-0.0343,-0.0342,0,0,-0.0275,-0.0332,-0.0336,-0.0364,-0.0407,-0.0431,-0.0481,-0.0511,-0.0536,-0.0539,-0.0555,-0.0537,-0.0495,-0.0483,-0.0444,-0.0398,-0.0318,-0.0336,-0.0332,-0.0263,-0.0161,-0.0154,-0.0138,-0.0295,-0.0293,-0.0292,-0.011,0,-0.0302,-0.0355,-0.0387,-0.0452,-0.0484,-0.051,-0.0562,-0.0586,-0.0601,-0.0613,-0.0575,-0.057,-0.0529,-0.0507,-0.0455,-0.0348,-0.0286,-0.0365,-0.0163,-0.0156,-0.0153,-0.0124,-0.0287,-0.01,-0.0097,-0.0095,-0.0093,0,-0.0339,-0.0366,-0.0429,-0.0499,-0.0517,-0.0565,-0.063,-0.0671,-0.068,-0.0687,-0.0661,-0.0614,-0.0542,-0.0514,-0.0339,-0.0378,-0.0264,-0.0187,-0.0178,-0.014,-0.0126,-0.0095,-0.0068,-0.007,-0.0072,-0.0074,-0.0075,0,-0.0335,-0.0401,-0.0451,-0.0477,-0.0554,-0.0595,-0.0641,-0.0683,-0.0712,-0.0714,-0.0704,-0.0632,-0.0575,-0.0441,-0.0268,-0.0284,-0.0059,-0.0077,0.0035,0.0038,0.0003,-0.0002,0.0054,0.0053,0.0053,0.0053,0.0052,0,-0.0357,-0.0398,-0.0453,-0.0483,-0.0552,-0.0605,-0.0675,-0.0716,-0.0745,-0.0744,-0.0721,-0.068,-0.0545,-0.0401,-0.0256,-0.0055,-0.0047,0.0052,0.0085,-0.0025,-0.0035,0.0014,0.0007,0.0059,0.0058,0.0057,0.0055,0,-0.036,-0.0393,-0.0453,-0.0527,-0.0555,-0.0608,-0.0698,-0.073,-0.0764,-0.0757,-0.0743,-0.0678,-0.0499,-0.0348,-0.0121,-0.0038,0.014,0.0211,0.0112,0.0134,0.0202,0.019,0.0343,0.0345,0.0346,0.0348,0.0349,0,-0.0371,-0.0396,-0.0474,-0.0509,-0.0551,-0.0625,-0.0669,-0.0735,-0.0749,-0.0733,-0.07,-0.0566,-0.0488,-0.0162,-0.0034,0.0218,0.0242,0.0323,0.0233,0.0215,0.0232,0.0218,0.0204,0.0351,0.0351,0.0352,0.0352,0,-0.0386,-0.0411,-0.0455,-0.051,-0.0565,-0.0628,-0.0679,-0.0684,-0.0716,-0.0732,-0.062,-0.0494,-0.0305,-0.0123,0.0069,0.0242,0.0252,0.0339,0.0336,0.0252,0.0227,0.0239,0.0223,0.0357,0.0357,0.0356,0.0356,0,-0.0393,-0.0422,-0.0462,-0.0516,-0.0573,-0.0606,-0.0647,-0.063,-0.0644,-0.0606,-0.0551,-0.0399,-0.0317,-0.0105,0.0081,0.0235,0.0251,0.0272,0.0272,0.0268,0.0165,0.0117,0.0261,0,0,0,0,0,-0.0393,-0.0417,-0.0462,-0.0521,-0.0569,-0.06,-0.0635,-0.0659,-0.0655,-0.0557,-0.0558,-0.0376,-0.0152,-0.0074,0.0091,0.0085,0.026,0.0276,0.0281,0.0386,0.038,0.0268,0,0,0,0,0,0,-0.0397,-0.0433,-0.0452,-0.0499,-0.0532,-0.0585,-0.0604,-0.0609,-0.0552,-0.0526,-0.0394,-0.0352,-0.0123,-0.0225,0.0094,0.0132,0.0151,0.0375,0.0377,0.0389,0.0384,0.0379,0.0262,0,0,0,0,0]}]]